www.pogodaiklimat.ru

Погода и климат >> Архив погоды >> Бельгия >> Бюзеноль


ПОГОДА в Бюзеноле

  • Прогноз погоды в Бюзеноле
  • Монитор погоды в Бюзеноле

АРХИВ ПОГОДЫ в Бюзеноле

Время (UTC), дата Ветер
(напр.,м/с)
 
Видим.   Явления Облачность Т
(С)
Тd
(С)
f
(%)
Тe
(С)
Тes
(С)
Комфортность P
(гПа)
Po
(гПа)
Тmin
(С)
Tmax
(С)
R
(мм)
R24
(мм)
S
(см)
10 12.01 СЗ 2 н/о н/о +3.6 +2.4 92 +1 +1 1025.9 985.7 3
11 12.01 З 3 н/о н/о +3.6 +2.5 93 -0 -0 1024.6 984.5 15
12 12.01 З 3 н/о н/о +3.9 +2.6 91 0 0 1023.9 983.9 19
13 12.01 СЗ 5 н/о н/о +4.2 +2.7 90 -1 -1 1022.9 982.9 14
14 12.01 З 4 н/о н/о +3.9 +3.0 94 -1 -1 1021.5 981.5 7
15 12.01 З 4 н/о н/о +4.1 +3.4 95 -1 -1 1020.8 980.9 4
16 12.01 З 4 н/о н/о +4.3 +3.6 95 -0 -0 1020.0 980.2 1
17 12.01 З 4 н/о н/о +4.9 +4.1 95 +1 +1 1019.4 979.7
18 12.01 СЗ 5 н/о н/о +5.3 +4.5 95 +1 +1 1018.6 979.0 +5.3
19 12.01 СЗ 3 н/о н/о +5.5 +4.8 95 +2 +2 1018.5 979.0
20 12.01 СЗ 3 н/о н/о +5.7 +4.9 95 +2 +2 1018.4 978.8
21 12.01 СЗ 3 н/о н/о +5.8 +4.8 93 +2 +2 1017.8 978.3
22 12.01 СЗ 3 н/о н/о +5.9 +4.9 93 +2 +2 1017.5 978.0
23 12.01 СЗ 3 н/о н/о +5.9 +4.7 92 +3 +3 1017.6 978.1
00 13.01 СЗ 2 н/о н/о +5.8 +4.8 93 +3 +3 1017.5 978.0 6
01 13.01 СЗ 3 н/о н/о +5.7 +4.8 94 +2 +2 1017.1 977.6
02 13.01 СЗ 3 н/о н/о +5.7 +4.8 94 +2 +2 1016.8 977.3
03 13.01 З 3 н/о н/о +5.6 +4.9 95 +2 +2 1016.5 977.0
04 13.01 З 3 н/о н/о +5.6 +5.0 96 +2 +2 1015.7 976.2
05 13.01 З 3 н/о н/о +5.8 +5.2 96 +2 +2 1015.2 975.8
06 13.01 З 3 н/о н/о +6.0 +5.3 95 +3 +3 1014.8 975.4 +5.4
07 13.01 З 4 н/о н/о +6.1 +5.4 95 +2 +2 1013.5 974.3
08 13.01 СЗ 4 н/о н/о +6.5 +5.7 95 +3 +3 1013.1 973.9
09 13.01 СЗ 4 н/о н/о +6.8 +6.0 95 +3 +3 1013.5 974.3 3
10 13.01 СЗ 4 н/о н/о +7.1 +6.2 94 +3 +3 1013.0 973.9 4
11 13.01 СЗ 5 н/о н/о +7.2 +6.4 95 +3 +3 1012.3 973.2 5
12 13.01 СЗ 5 н/о н/о +7.5 +6.5 93 +3 +3 1011.5 972.4 7
13 13.01 СЗ 5 н/о н/о +7.5 +6.6 94 +3 +3 1010.1 971.2 9
14 13.01 СЗ 5 н/о н/о +7.9 +7.0 94 +4 +4 1009.2 970.4 12
15 13.01 СЗ 5 н/о н/о +8.2 +7.2 93 +4 +4 1008.4 969.6 4
16 13.01 СЗ 5 н/о н/о +8.2 +7.2 93 +4 +4 1008.5 969.7 1
17 13.01 СЗ 5 н/о н/о +8.0 +6.9 93 +4 +4 1008.5 969.6
18 13.01 СЗ 4 н/о н/о +7.8 +6.8 93 +4 +4 1008.4 969.6 +8.3
19 13.01 СЗ 3 н/о н/о +7.7 +6.6 93 +5 +5 1008.7 969.8
20 13.01 СЗ 4 н/о н/о +7.5 +6.5 93 +4 +4 1007.8 968.9
21 13.01 СЗ 4 н/о н/о +7.5 +5.9 90 +4 +4 1007.9 969.0
22 13.01 С 6 н/о н/о +7.2 +4.9 85 +3 +3 1008.0 969.1
23 13.01 С 5 н/о н/о +6.2 +4.0 86 +2 +2 1008.4 969.3
00 14.01 С 4 н/о н/о +6.1 +4.1 87 +2 +2 1009.0 969.9 4
01 14.01 С 5 н/о н/о +5.5 +3.2 85 +1 +1 1009.6 970.3
02 14.01 С 5 н/о н/о +5.1 +2.8 85 0 0 1010.4 971.0
03 14.01 С 4 н/о н/о +4.6 +2.4 86 0 0 1011.4 971.9
04 14.01 С 3 н/о н/о +4.7 +2.7 87 +1 +1 1011.8 972.4
05 14.01 С 3 н/о н/о +4.8 +2.7 86 +1 +1 1012.3 972.9
06 14.01 С 4 н/о н/о +4.8 +2.2 83 +1 +1 1012.6 973.1 +4.5
07 14.01 С 5 н/о н/о +4.4 +2.1 85 -1 -1 1013.3 973.7
08 14.01 С 3 н/о н/о +4.4 +1.8 83 +1 +1 1014.6 974.9
09 14.01 н/о н/о +4.6 +1.7 81 1015.2 975.6 9
10 14.01 С 4 н/о н/о +5.1 +1.5 78 +1 +1 1015.9 976.3 19
11 14.01 С 4 н/о н/о +5.3 +2.0 79 +1 +1 1016.3 976.7 33
12 14.01 С 4 н/о н/о +5.2 +2.4 82 +1 +1 1016.5 976.9 38
13 14.01 С 4 н/о н/о +4.9 +2.7 86 +1 +1 1017.2 977.5 37
14 14.01 С 4 н/о н/о +5.2 +2.2 81 +1 +1 1017.7 978.1 46
15 14.01 С 5 н/о н/о +5.5 +1.2 74 +1 +1 1018.2 978.6 45
16 14.01 С 3 н/о н/о +3.4 +0.8 83 -1 -1 1020.2 980.2 7
17 14.01 СВ 3 н/о н/о +2.5 +1.0 90 -2 -2 1020.8 980.7
18 14.01 СВ 3 н/о н/о +2.3 +0.3 87 -2 -2 1021.7 981.5 +5.8
19 14.01 С 2 н/о н/о +1.4 -0.4 88 -2 -2 1022.2 981.9
20 14.01 С 1 н/о н/о +0.2 -0.7 94 -2 -2 1023.1 982.5
21 14.01 СЗ 1 н/о н/о -0.5 -1.2 95 -3 -3 1023.5 982.8
22 14.01 СЗ 1 н/о н/о -0.6 -1.3 95 -3 -3 1023.7 983.1
23 14.01 СЗ 1 н/о н/о +0.5 -0.1 96 -2 -2 1024.1 983.6
00 15.01 СЗ 2 н/о н/о +1.7 +0.8 94 -2 -2 1023.9 983.6 23
01 15.01 З 2 н/о н/о +1.8 +0.9 94 -2 -2 1024.3 983.9
02 15.01 З 3 н/о н/о +1.9 +1.1 94 -3 -3 1024.1 983.8
03 15.01 З 3 н/о н/о +1.9 +1.2 95 -3 -3 1024.4 984.1
04 15.01 З 3 н/о н/о +2.0 +1.4 96 -2 -2 1024.1 983.8
05 15.01 З 2 н/о н/о +2.3 +1.7 96 -1 -1 1023.8 983.6
06 15.01 З 3 н/о н/о +2.3 +1.7 96 -2 -2 1023.8 983.6 -0.7
07 15.01 З 2 н/о н/о +2.3 +1.6 95 -1 -1 1023.5 983.2
08 15.01 З 2 н/о н/о +2.3 +1.7 96 -1 -1 1023.7 983.5
09 15.01 З 2 н/о н/о +2.6 +1.9 95 -1 -1 1024.0 983.7 4
10 15.01 З 3 н/о н/о +2.9 +2.1 94 -1 -1 1024.0 983.8 13
11 15.01 З 3 н/о н/о +3.5 +2.3 92 -1 -1 1023.5 983.4 30
12 15.01 З 3 н/о н/о +3.8 +2.5 91 -0 -0 1023.1 983.1 24
13 15.01 З 3 н/о н/о +4.1 +2.4 89 0 0 1022.7 982.7 25
14 15.01 З 2 н/о н/о +4.2 +2.5 89 +1 +1 1022.3 982.4 15
15 15.01 З 3 н/о н/о +4.2 +2.5 89 0 0 1022.2 982.2 8
16 15.01 З 2 н/о н/о +4.1 +2.7 91 +1 +1 1022.1 982.2 1
17 15.01 З 2 н/о н/о +4.0 +2.8 92 +1 +1 1022.1 982.1
18 15.01 З 3 н/о н/о +4.0 +2.8 92 0 0 1021.9 982.0 +4.2
19 15.01 З 3 н/о н/о +4.0 +2.7 91 0 0 1021.5 981.6
20 15.01 СЗ 2 н/о н/о +4.0 +2.5 90 +1 +1 1021.4 981.4
21 15.01 З 2 н/о н/о +4.0 +2.1 87 +1 +1 1021.3 981.4
22 15.01 З 3 н/о н/о +4.0 +1.5 84 0 0 1020.9 981.0
23 15.01 З 3 н/о н/о +4.0 +1.1 81 0 0 1020.2 980.3
00 16.01 З 3 н/о н/о +3.9 +0.9 81 0 0 1019.9 980.0 12
01 16.01 З 3 н/о н/о +3.7 +0.6 80 0 0 1019.5 979.6
02 16.01 З 3 н/о н/о +3.5 +0.5 81 -0 -0 1018.9 979.0
03 16.01 З 3 н/о н/о +3.2 +0.3 81 -1 -1 1018.6 978.6
04 16.01 З 3 н/о н/о +3.0 +0.2 82 -1 -1 1018.1 978.1
05 16.01 З 4 н/о н/о +2.8 0.0 82 -2 -2 1017.3 977.4
06 16.01 З 3 н/о н/о +2.6 0.0 83 -1 -1 1016.7 976.8 +2.6
07 16.01 ЮЗ 3 н/о н/о +2.5 0.0 84 -2 -2 1016.4 976.5
08 16.01 З 3 н/о н/о +2.7 0.0 82 -1 -1 1015.8 975.9
09 16.01 ЮЗ 3 н/о н/о +2.8 +0.1 82 -1 -1 1015.8 975.9 6
10 16.01 ЮЗ 4 н/о н/о +3.1 +0.2 81 -2 -2 1014.9 975.1 17
11 16.01 З 5 н/о н/о +3.8 +0.3 78 -1 -1 1014.1 974.4 52
12 16.01 З 5 н/о н/о +4.5 0.0 73 -0 -0 1012.8 973.3 74
13 16.01 ЮЗ 4 н/о н/о +4.7 +0.2 73 +1 +1 1011.7 972.2 72
14 16.01 З 5 н/о н/о +4.9 +0.4 73 0 0 1010.8 971.4 60
15 16.01 ЮЗ 5 н/о н/о +4.6 +0.5 75 0 0 1010.0 970.6 40
16 16.01 ЮЗ 4 н/о н/о +3.9 +0.3 77 -0 -0 1009.9 970.4 15
17 16.01 З 3 н/о н/о +2.8 +0.1 82 -1 -1 1009.8 970.2
18 16.01 З 4 н/о н/о +2.7 +0.2 84 -2 -2 1009.5 969.8 +5.0
19 16.01 З 5 н/о н/о +2.7 +0.4 85 -3 -3 1009.3 969.7
20 16.01 З 5 н/о н/о +3.2 +0.4 82 -2 -2 1008.6 969.1
21 16.01 З 4 н/о н/о +3.6 +0.3 79 -1 -1 1008.4 968.9
22 16.01 З 5 н/о н/о +4.0 -0.1 75 -1 -1 1008.0 968.6
23 16.01 З 6 н/о н/о +3.7 +1.1 83 -2 -2 1007.9 968.4
00 17.01 З 4 н/о н/о +3.3 +2.4 94 -2 -2 1007.5 968.0 34
01 17.01 З 6 н/о н/о +3.6 +2.9 95 -2 -2 1007.0 967.6
02 17.01 З 6 н/о н/о +4.1 +3.3 95 -2 -2 1006.7 967.4
03 17.01 З 4 н/о н/о +4.3 +3.6 95 -0 -0 1006.5 967.2
04 17.01 СЗ 3 н/о н/о +4.4 +3.6 95 +1 +1 1006.3 967.0
05 17.01 СЗ 3 н/о н/о +3.9 +2.7 92 0 0 1006.0 966.7
06 17.01 З 2 н/о н/о +3.4 +2.5 94 0 0 1005.9 966.5 +2.5
07 17.01 З 3 н/о н/о +2.7 +1.9 94 -2 -2 1006.5 966.9
08 17.01 З 2 н/о н/о +2.4 +1.6 94 -1 -1 1006.5 967.0 1
09 17.01 З 5 н/о н/о +3.4 +2.4 93 -2 -2 1006.8 967.4 7
10 17.01 З 5 н/о н/о +3.6 +2.5 93 -2 -2 1006.9 967.5 6
11 17.01 З 5 н/о н/о +4.0 +2.4 89 -1 -1 1006.6 967.2 20
12 17.01 З 4 н/о н/о +3.4 +2.2 92 -1 -1 1006.8 967.4 16
13 17.01 СЗ 5 н/о н/о +3.7 +2.3 91 -2 -2 1006.8 967.4 20
14 17.01 С 3 н/о н/о +3.0 +0.9 86 -1 -1 1008.1 968.5 25
15 17.01 СЗ 3 н/о н/о +2.8 +0.8 87 -1 -1 1009.1 969.5 33
16 17.01 СЗ 2 н/о н/о +1.1 +0.1 93 -2 -2 1010.9 971.0 5
17 17.01 С 3 н/о н/о +0.9 -0.3 92 -4 -4 1011.9 971.9
18 17.01 С 3 н/о н/о +0.6 -0.9 90 -4 -4 1013.0 972.9 +4.1
19 17.01 СЗ 3 н/о н/о +0.1 -1.4 90 -5 -5 1013.9 973.7
20 17.01 СЗ 3 н/о н/о -0.1 -1.4 91 -5 -5 1015.1 974.8
21 17.01 н/о н/о -0.1 -1.4 91 1016.0 975.6
22 17.01 СЗ 1 н/о н/о -0.4 -1.5 92 -3 -3 1016.8 976.4
23 17.01 СЗ 1 н/о н/о -0.9 -1.8 94 -3 -3 1017.2 976.7
00 18.01 СЗ 2 н/о н/о -0.4 -1.5 92 -4 -4 1017.9 977.4 13
01 18.01 СЗ 2 н/о н/о -0.2 -1.3 92 -4 -4 1017.9 977.5
02 18.01 СЗ 2 н/о н/о -0.3 -1.1 94 -4 -4 1018.4 977.9
03 18.01 С 3 н/о н/о -0.5 -1.3 94 -5 -5 1018.6 978.1
04 18.01 СЗ 1 н/о н/о -1.0 -1.6 96 -3 -3 1019.2 978.6
05 18.01 З 1 н/о н/о -2.3 -2.8 96 -5 -5 1019.7 978.9
06 18.01 С 2 н/о н/о -1.7 -2.3 96 -6 -6 1020.4 979.6 -2.5
07 18.01 С 1 н/о н/о -2.3 -2.8 96 -5 -5 1020.8 980.0
08 18.01 С 1 н/о н/о -3.0 -3.5 96 -5 -5 1021.5 980.5 2
09 18.01 штиль 0 н/о н/о -2.4 -3.0 96 -4 -4 1021.9 981.0 15
10 18.01 Ю 1 н/о н/о -0.5 -1.7 92 -3 -3 1022.1 981.4 39
11 18.01 Ю 1 н/о н/о +1.4 -0.7 86 -0 -0 1021.8 981.5 77
12 18.01 ЮЗ 2 н/о н/о +2.3 -1.0 79 -1 -1 1021.3 981.1 102
13 18.01 Ю 3 н/о н/о +1.6 -1.8 78 -3 -3 1021.2 980.9 95
14 18.01 Ю 2 н/о н/о +1.3 -2.3 77 -2 -2 1020.8 980.6 66
15 18.01 Ю 2 н/о н/о +1.7 -2.7 73 -1 -1 1020.8 980.5 50
16 18.01 Ю 2 н/о н/о +0.4 -3.5 75 -3 -3 1020.9 980.4 24
17 18.01 Ю 1 н/о н/о -0.7 -3.9 79 -3 -3 1020.9 980.2 1
18 18.01 СВ 1 н/о н/о -2.1 -3.2 92 -4 -4 1020.9 980.1 +2.4
19 18.01 СВ 2 н/о н/о -2.6 -3.4 94 -7 -7 1020.8 980.0
20 18.01 СВ 2 н/о н/о -3.2 -3.8 96 -7 -7 1020.6 979.6
21 18.01 СВ 2 н/о н/о -3.5 -4.2 95 -8 -8 1020.5 979.5
22 18.01 СВ 1 н/о н/о -3.9 -4.7 94 -6 -6 1020.6 979.5
23 18.01 В 2 н/о н/о -3.7 -4.9 91 -8 -8 1020.3 979.3
00 19.01 В 2 н/о н/о -3.0 -4.7 88 -7 -7 1019.9 979.0 47
01 19.01 С 1 н/о н/о -3.9 -4.9 93 -6 -6 1019.9 978.9
02 19.01 ЮВ 2 н/о н/о -3.3 -4.6 91 -7 -7 1019.3 978.4
03 19.01 ЮВ 2 н/о н/о -3.1 -4.5 90 -7 -7 1018.8 977.9
04 19.01 Ю 1 н/о н/о -2.8 -4.3 89 -5 -5 1018.3 977.5
05 19.01 ЮВ 2 н/о н/о -3.5 -4.8 91 -8 -8 1018.0 977.1
06 19.01 СВ 1 н/о н/о -4.4 -5.5 92 -7 -7 1018.0 977.0 -4.4
07 19.01 ЮВ 2 н/о н/о -4.0 -5.2 91 -8 -8 1017.7 976.7
08 19.01 ЮВ 2 н/о н/о -4.3 -5.4 92 -9 -9 1017.7 976.7

 

Местоположение метеостанции Бюзеноль (Бельгия): широта 49.62 долгота 5.58 высота над уровнем моря 322 м.

В архиве по умолчанию представлена погода в Бюзеноле за последнюю неделю. Архивные данные за месяц целиком и за предыдущие месяцы, начиная с января 2011 года, Вы можете получить, выбрав интересующий диапазон дат из раскрывающегося списка и нажав кнопку "Ввод!".


*Определитесь, кто Вы:
робот инопланетянин человек

Внимание! Время в таблицах - всемирное. Для получения местного времени необходимо прибавить поправку, которая равна 1 ч.

Смотрите также архив погоды в соседних городах и на ближайших метеорологических станциях:

Погода в Люксембурге (Люксембург) (45 км)
Погода в Сент-Губерте (Бельгия) (47 км)
Погода в Гумане (Бельгия) (69 км)
Погода в Чарвилле (Франция) (71 км)
Погода в Трире (Германия) (80 км)
Погода в Мец-Нанси аэропорту (Франция) (86 км)
Погода в Берусе (Германия) (88 км)
Погода в Дурбе (Бельгия) (88 км)
Погода во Флорене (Бельгия) (95 км)
Погода в Спа (Бельгия) (99 км)

Пояснения к столбцам:

Ветер - указаны скорость ветра в м/с - средняя за 10 мин, порывы в срок и между сроками (в фигурных скобках) и направление, откуда дует ветер: С - северный, СВ - северо-восточный, В - восточный, ЮВ - юго-восточный, Ю - южный, ЮЗ - юго-западный, З - западный, СЗ - северо-западный.
Видимость - горизонтальная дальность видимости в метрах или километрах. При видимости от 1 до 10 км при отсутствии осадков обычно наблюдается дымка, при ухудшении видимости до 1 км и менее - туман. В сухую погоду видимость может ухудшаться дымом, пылью или мглою.
Явления - указаны атмосферные явления, наблюдавшиеся в срок или в последний час перед сроком; фигурными скобками обозначены явления, наблюдавшиеся между сроками (за 1-3 часа до срока); квадратными скобками обозначены град или гололедные отложения с указанием их диаметра в мм.
Облачность - указаны через наклонную черту общая и нижняя облачность в баллах и высота нижней границы облаков в метрах; квадратными скобками обозначены формы облаков: Ci - перистые, Cs - перисто-слоистые, Cc - перисто-кучевые, Ac - высококучевые, As - высокослоистые, Sc - слоисто-кучевые, Ns - слоисто-дождевые, Cu - кучевые, Cb - кучево-дождевые. Подробнее классификацию облаков см. в Атласе облаков (PDF).
T - Температура воздуха - температура, измеренная на высоте 2 м над землей.
Td - Температура точки росы - температура, при понижении до которой содержащийся в воздухе водяной пар достигнет насыщения.
f - Относительная влажность воздуха - влажноcть воздуха, измеренная на высоте 2 м над землей.
Te - Эффективная температура - температура, которую ощущает одетый по сезону человек в тени. Характеристика душности погоды. При расчете учитывается влияние влажности воздуха и скорости ветра на теплоощущения человека.
Tes - Эффективная температура на солнце - температура, которую ощущает человек, с поправкой на солнечный нагрев. Характеристика знойности погоды. Зависит от высоты солнца над горизонтом, облачности и скорости ветра. Ночью, в пасмурную погоду, а также при ветре 12 м/с и более поправка равна нулю.
P - Атмосферное давление - приведенное к уровню моря атмосферное давление.
Po - Атмосферное давление - измеренное на уровне метеостанции атмосферное давление.
Tmin - Минимальная температура - минимум температуры воздуха на высоте 2 м над землей.
Tmax - Максимальная температура - максимум температуры воздуха на высоте 2 м над землей.
R - Количество осадков - Количество выпавших осадков за период времени, мм. При наведении курсора мыши на число - период времени, за который выпало указанное количество осадков.
R24 - Количество осадков - Количество выпавших осадков за 24 часа, мм.
S - Снежный покров - Высота снежного покрова, см. При наведении курсора мыши на число - состояние снежного покрова и степень покрытия местности в баллах.